Date,TemperatureHighF,TemperatureAvgF,TemperatureLowF,DewpointHighF,DewpointAvgF,DewpointLowF,HumidityHigh,HumidityAvg,HumidityLow,PressureMaxIn,PressureMinIn,WindSpeedMaxMPH,WindSpeedAvgMPH,GustSpeedMaxMPH,PrecipitationSumIn
2013-1-1,33,26,16,27,21,10,86,80,71,30.12,29.99,4,0,4,0.02
2013-1-2,20,12,2,11,5,-4,83,72,63,30.20,30.09,7,0,7,0.00
2013-1-3,29,19,8,23,12,2,79,76,73,30.22,30.10,8,1,8,0.00
2013-1-4,28,21,14,20,14,9,81,76,69,30.29,30.19,10,2,10,0.00
2013-1-5,34,25,14,29,20,10,86,80,73,30.31,30.08,8,1,8,0.00
2013-1-6,34,29,18,30,24,-4,83,81,76,30.34,29.98,11,2,11,0.00
2013-1-7,34,23,12,26,17,7,86,79,71,30.43,30.19,8,0,8,0.00
2013-1-8,37,27,18,29,22,13,87,78,71,30.27,30.17,6,0,6,0.00
2013-1-9,46,38,28,37,31,22,84,75,65,30.51,30.13,11,2,11,0.00
2013-1-10,39,32,25,35,26,19,86,78,70,30.53,30.05,8,2,8,0.00
2013-1-11,54,48,39,51,44,35,92,86,77,30.06,29.77,14,2,14,0.00
2013-1-12,58,49,41,51,45,37,92,85,76,29.99,29.75,8,0,8,0.00
2013-1-13,51,34,22,48,31,10,90,89,87,30.20,29.75,58,1,58,0.00
2013-1-14,22,18,14,18,14,11,87,85,83,30.47,30.20,0,0,0,0.00
2013-1-15,28,21,14,22,16,11,88,81,73,30.42,30.13,5,0,5,0.00
2013-1-16,34,27,21,26,21,16,86,76,63,30.13,29.93,14,2,14,0.00
2013-1-17,35,29,20,31,22,12,86,73,61,30.40,30.05,7,0,7,0.00
2013-1-18,37,28,18,26,18,12,81,69,56,30.46,30.09,14,3,14,0.00
2013-1-19,47,40,36,34,29,26,73,65,56,30.09,29.83,20,5,20,0.00
2013-1-20,42,24,18,33,12,6,72,60,55,30.27,29.85,17,4,17,0.00
2013-1-21,20,13,7,8,2,-5,72,60,51,30.25,30.10,18,4,18,0.00
2013-1-22,13,8,3,1,-4,-7,70,60,52,30.37,30.24,21,2,21,0.00
2013-1-23,20,14,8,11,3,-3,70,62,56,30.34,30.10,10,1,10,0.00
2013-1-24,21,16,8,11,6,0,76,65,53,30.60,30.16,7,0,7,0.00
2013-1-25,25,20,17,19,12,8,78,71,63,30.43,30.02,5,0,5,0.00
2013-1-26,28,24,21,23,16,14,87,72,66,30.44,30.08,8,0,8,0.00
2013-1-27,34,25,18,30,19,12,87,76,71,30.43,30.07,8,1,8,0.00
2013-1-28,48,42,34,46,40,30,91,90,87,30.09,29.95,29,2,29,0.00
2013-1-29,59,51,43,55,49,-17,93,91,88,29.98,29.41,16,2,16,0.00
2013-1-30,61,44,28,56,41,24,93,89,84,29.56,29.26,16,4,16,0.00
2013-1-31,28,18,9,24,12,2,85,77,70,30.09,29.56,21,6,21,0.00
2013-2-1,15,9,4,8,2,-3,75,72,68,30.38,30.09,18,4,18,0.00
2013-2-2,25,20,15,20,15,8,83,81,74,30.25,29.98,10,2,10,0.00
2013-2-3,21,16,11,15,10,6,83,79,74,30.09,29.96,12,2,12,0.00
2013-2-4,32,23,14,26,18,9,85,80,76,30.08,29.83,8,0,8,0.00
2013-2-5,32,24,14,27,19,10,86,81,74,30.04,29.82,10,1,10,0.00
2013-2-6,36,30,27,28,23,18,81,74,63,30.28,30.04,6,1,6,0.00
2013-2-7,47,38,30,37,31,24,84,76,68,30.21,29.81,8,1,8,0.00
2013-2-8,39,32,27,35,26,21,86,80,75,30.36,29.81,107,1,107,0.00
2013-2-9,38,28,20,27,21,15,83,73,61,30.42,30.19,8,1,8,0.00
2013-2-10,47,38,31,43,32,23,88,77,72,30.19,29.67,24,2,24,0.00
2013-2-11,47,36,27,44,28,19,89,74,69,30.03,29.66,20,6,20,0.00
2013-2-12,34,30,28,25,23,21,76,73,68,30.13,29.95,16,3,16,0.00
2013-2-13,46,31,24,32,24,18,81,73,58,29.96,29.77,7,1,7,0.00
2013-2-14,40,36,31,35,29,25,86,76,70,29.99,29.77,17,4,17,0.00
2013-2-15,33,28,21,26,20,14,78,73,65,30.18,29.97,8,0,8,0.00
2013-2-16,23,20,15,17,12,5,78,70,59,30.15,30.08,9,1,9,0.18
2013-2-17,26,17,11,16,9,4,75,70,61,30.23,30.14,4,0,4,0.00
2013-2-18,50,43,26,39,33,15,83,68,59,30.04,29.56,12,3,12,0.00
2013-2-19,44,26,14,39,20,7,86,79,72,30.11,29.53,14,5,14,0.00
2013-2-20,21,17,11,14,10,4,77,72,67,30.33,30.11,8,2,8,0.00
2013-2-21,27,24,19,18,16,11,78,72,69,30.36,30.07,12,2,12,0.00
2013-2-22,34,28,23,30,24,17,89,85,78,30.07,29.87,11,2,11,0.00
2013-2-23,30,27,24,26,21,16,86,78,72,30.00,29.93,10,2,10,0.00
2013-2-24,39,29,25,27,21,18,77,73,62,30.16,29.98,6,1,6,0.00
2013-2-25,42,34,21,29,25,16,82,68,60,30.20,29.97,6,1,6,0.00
2013-2-26,33,31,25,30,26,-2,88,82,22,29.97,29.46,22,3,22,0.00
2013-2-27,33,31,26,30,28,23,90,89,88,29.67,29.47,9,2,9,0.00
2013-2-28,36,32,28,32,29,26,91,89,87,29.99,29.64,7,1,7,0.00
2013-3-1,32,30,25,28,26,21,88,84,79,30.11,29.97,5,0,5,0.00
2013-3-2,33,27,24,24,20,16,80,75,69,30.12,30.07,5,0,5,0.00
2013-3-3,33,27,22,23,19,14,81,73,64,30.11,30.05,8,1,8,0.00
2013-3-4,35,26,17,25,18,11,83,71,59,30.16,30.02,5,0,5,0.00
2013-3-5,32,30,25,28,24,10,85,81,42,30.04,29.70,8,2,8,0.18
2013-3-6,33,29,26,28,25,22,86,84,79,30.26,29.80,6,0,6,0.00
2013-3-7,35,32,6,31,27,0,87,81,73,30.41,30.25,5,0,5,0.06
2013-3-8,36,26,17,30,20,12,86,76,60,30.49,30.39,3,0,3,0.00
2013-3-9,40,32,28,33,24,20,78,74,66,30.39,29.99,58,1,58,0.00
2013-3-10,61,49,40,45,38,32,77,67,55,29.96,29.76,13,2,13,0.00
2013-3-11,53,43,34,45,38,29,89,82,64,29.83,29.61,16,3,16,0.00
2013-3-12,37,32,26,30,26,20,85,78,66,30.01,29.83,13,5,13,0.00
2013-3-13,33,27,22,26,19,13,81,72,61,30.31,30.00,14,4,14,0.00
2013-3-14,25,24,23,16,15,14,70,68,66,30.33,30.30,5,0,5,0.00
2013-3-15,48,40,28,38,33,24,85,77,67,30.14,29.79,7,1,7,0.18
2013-3-16,42,36,31,38,32,-2,87,85,83,30.10,29.64,3,0,3,0.00
2013-3-17,37,30,25,27,23,16,83,75,65,30.20,30.05,8,2,8,0.00
2013-3-18,37,31,27,34,27,22,89,85,75,30.05,29.56,22,3,22,0.00
2013-3-19,38,28,22,25,18,12,77,64,51,30.08,29.81,19,7,19,0.00
2013-3-20,32,25,21,18,12,6,66,57,49,30.08,30.00,11,4,11,0.00
2013-3-21,37,24,15,19,12,7,71,60,47,30.03,29.98,12,3,12,0.18
2013-3-22,45,29,17,26,16,10,77,58,44,30.07,30.00,9,1,9,0.00
2013-3-23,46,33,25,29,20,13,69,58,51,30.12,29.97,5,0,5,0.00
2013-3-24,36,30,26,24,21,18,80,69,62,29.99,29.54,13,2,13,0.00
2013-3-25,36,30,28,29,25,23,85,81,75,30.00,29.56,7,0,7,0.00
2013-3-26,41,33,31,31,27,24,85,76,62,30.23,29.99,9,2,9,0.00
2013-3-27,41,33,26,32,25,21,83,72,59,30.32,30.23,12,2,12,0.00
2013-3-28,50,36,26,34,25,18,79,65,50,30.36,30.29,9,1,9,0.00
2013-3-29,53,39,28,38,28,22,82,63,46,30.34,30.23,7,0,7,0.00
2013-3-30,55,41,26,37,28,18,77,60,47,30.26,29.94,8,1,8,0.00
2013-3-31,60,48,43,41,37,30,84,66,49,29.94,29.73,13,2,13,0.00
2013-4-1,44,36,28,30,22,13,69,58,46,30.17,29.84,10,1,10,0.00
2013-4-2,47,32,21,29,16,10,72,53,36,30.29,30.16,14,1,14,0.00
2013-4-3,48,34,21,28,16,9,65,47,34,30.44,30.29,8,0,8,0.00
2013-4-4,59,40,28,30,21,13,61,47,32,30.35,30.00,8,1,8,0.00
2013-4-5,57,43,32,35,25,19,66,50,34,30.20,29.98,7,1,7,0.00
2013-4-6,66,48,35,41,29,19,58,49,37,30.18,29.79,20,3,20,0.00
2013-4-7,68,58,51,45,41,36,73,55,42,29.99,29.74,15,4,15,0.00
2013-4-8,74,58,-22,56,46,-32,81,64,52,30.00,29.80,19,3,19,0.00
2013-4-9,80,64,53,60,52,44,74,65,50,30.03,29.88,17,3,17,0.00
2013-4-10,71,61,48,65,54,34,89,80,70,29.92,29.80,10,1,10,0.00
2013-4-11,52,46,42,49,44,39,91,91,89,29.89,29.59,9,1,9,0.00
2013-4-12,43,38,32,41,34,27,91,85,77,29.91,29.60,15,5,15,0.00
2013-4-13,44,38,30,35,32,25,87,79,68,30.02,29.91,12,3,12,0.00
2013-4-14,67,49,38,52,40,32,84,72,54,30.05,29.84,9,2,9,0.00
2013-4-15,64,57,50,56,49,43,82,75,64,29.96,29.84,10,2,10,0.00
2013-4-16,60,49,43,53,44,38,87,84,77,30.24,29.91,10,0,10,0.00
2013-4-17,60,49,44,55,44,40,87,85,82,30.26,29.94,10,2,10,0.00
2013-4-18,71,58,47,65,54,43,92,88,78,29.94,29.58,18,2,18,0.25
2013-4-19,60,38,31,57,34,7,92,85,77,29.93,29.55,13,5,13,0.65
2013-4-20,44,37,11,33,28,7,85,72,56,30.44,29.92,9,3,9,0.00
2013-4-21,50,34,27,32,24,20,75,67,48,30.55,30.40,9,0,9,0.18
2013-4-22,65,49,32,41,34,26,80,59,39,30.40,30.13,9,1,9,0.00
2013-4-23,62,54,44,53,45,35,89,73,58,30.14,29.83,13,2,13,0.00
2013-4-24,46,39,31,43,35,28,89,85,72,30.21,29.83,9,1,9,0.00
2013-4-25,52,42,34,38,32,25,85,68,49,30.38,30.18,15,3,15,0.00
2013-4-26,61,46,32,42,35,27,83,65,47,30.44,30.34,8,1,8,0.00
2013-4-27,67,53,38,48,40,32,83,62,43,30.36,30.06,11,1,11,0.00
2013-4-28,59,54,50,56,50,47,90,85,73,30.06,29.85,3,0,3,0.49
2013-4-29,68,58,54,56,52,50,90,81,65,30.00,29.90,7,1,7,0.41
2013-4-30,78,64,52,63,55,47,86,72,59,30.05,29.94,13,2,13,0.00
2013-5-1,82,68,53,61,54,47,83,63,45,30.19,30.04,8,1,8,0.00
2013-5-2,76,68,58,58,54,50,77,61,50,30.22,30.09,9,1,9,0.00
2013-5-3,75,67,60,59,54,46,75,63,48,30.10,29.95,13,2,13,0.00
2013-5-4,70,63,59,48,44,40,63,51,38,30.04,29.97,10,1,10,0.00
2013-5-5,64,59,53,49,47,43,70,63,52,30.03,29.98,8,1,8,0.00
2013-5-6,67,61,55,54,48,43,68,62,54,30.03,29.95,8,1,8,0.00
2013-5-7,73,65,58,57,52,50,76,65,52,30.05,29.98,4,0,4,0.00
2013-5-8,76,63,53,59,52,46,80,67,49,30.05,29.97,4,0,4,0.04
2013-5-9,71,61,52,60,53,47,86,75,50,30.03,29.91,5,0,5,0.18
2013-5-10,65,60,57,59,56,52,89,85,75,29.92,29.83,8,1,8,0.37
2013-5-11,59,48,44,52,42,37,86,82,75,30.02,29.84,4,1,4,0.02
2013-5-12,53,44,37,37,34,31,81,68,55,30.14,30.02,2,0,2,0.02
2013-5-13,61,54,34,39,33,28,81,47,37,30.19,30.11,7,0,7,0.18
2013-5-14,84,65,50,62,48,31,62,53,47,30.12,29.78,13,2,13,0.00
2013-5-15,83,75,69,61,56,50,63,52,43,29.86,29.76,10,2,10,0.18
2013-5-16,79,68,58,59,52,46,80,57,37,29.99,29.84,4,0,4,0.02
2013-5-17,73,63,55,62,53,47,83,72,58,30.10,29.99,6,0,6,0.14
2013-5-18,77,65,56,64,56,48,83,73,62,30.12,30.00,5,0,5,0.03
2013-5-19,84,71,58,66,60,50,79,68,55,30.03,29.87,8,0,8,0.00
2013-5-20,83,76,69,70,65,48,87,71,58,29.95,29.84,8,1,8,0.00
2013-5-21,84,74,65,66,62,58,84,68,48,29.87,29.76,29,2,29,0.02
2013-5-22,74,67,58,64,60,52,86,76,66,29.81,29.72,10,1,10,0.93
2013-5-23,62,55,48,58,51,15,89,86,82,30.20,29.79,7,0,7,0.04
2013-5-24,62,50,42,45,41,37,86,71,52,30.38,30.19,4,0,4,0.00
2013-5-25,61,52,41,47,41,34,80,67,56,30.40,30.26,3,0,3,0.00
2013-5-26,68,58,46,49,43,39,78,60,45,30.33,30.19,7,0,7,0.00
2013-5-27,63,56,50,60,50,45,91,82,62,30.21,29.94,7,0,7,1.19
2013-5-28,78,70,61,69,64,59,92,82,73,29.97,29.88,8,2,8,0.38
2013-5-29,82,74,67,66,63,43,78,69,57,30.04,29.93,9,1,9,0.00
2013-5-30,83,74,66,69,64,60,83,71,58,30.08,29.95,10,2,10,0.00
2013-5-31,75,70,63,68,64,58,89,81,72,30.02,29.87,9,2,9,0.21
2013-6-1,71,67,62,67,62,56,92,83,76,29.91,29.77,9,2,9,0.77
2013-6-2,68,61,56,62,56,22,87,82,20,30.01,29.77,8,0,8,0.02
2013-6-3,66,57,46,49,45,41,84,67,53,30.12,30.04,14,0,14,0.00
2013-6-4,71,60,47,51,46,41,82,63,47,30.19,30.10,6,0,6,0.00
2013-6-5,76,65,55,56,50,44,69,58,47,30.14,29.93,6,0,6,0.00
2013-6-6,74,64,59,58,51,45,70,62,54,29.96,29.84,2,0,2,0.00
2013-6-7,71,64,59,57,53,51,80,69,59,29.94,29.87,3,0,3,0.00
2013-6-8,76,65,53,58,52,47,84,65,47,30.04,29.93,6,0,6,0.00
2013-6-9,80,70,64,63,59,52,83,68,47,30.07,29.88,7,1,7,0.00
2013-6-10,68,65,62,63,61,59,91,88,83,29.89,29.79,5,0,5,0.82
2013-6-11,81,71,61,66,63,57,88,76,61,29.99,29.85,6,0,6,0.22
2013-6-12,69,68,67,63,63,63,86,84,83,29.92,29.88,0,0,0,0.00
2013-6-13,71,65,59,63,56,52,91,73,65,30.01,29.65,5,0,5,0.70
2013-6-14,74,64,56,61,56,51,86,75,62,30.12,29.99,2,0,2,0.00
2013-6-15,71,65,58,64,59,53,88,80,69,30.13,29.96,3,0,3,0.00
2013-6-16,79,72,66,68,64,60,88,78,70,29.98,29.94,8,1,8,0.02
2013-6-17,82,75,69,69,66,63,90,74,56,29.99,29.91,3,0,3,0.00
2013-6-18,77,72,65,65,61,57,84,69,62,30.06,29.93,2,0,2,0.00
2013-6-19,76,69,58,59,55,51,78,62,53,30.17,30.05,6,0,6,0.00
2013-6-20,82,72,59,65,60,52,79,66,54,30.21,30.14,2,0,2,0.00
2013-6-21,85,74,63,66,61,55,82,65,45,30.22,30.00,7,0,7,0.00
2013-6-22,81,74,69,71,66,62,83,74,60,30.15,30.03,11,0,11,0.00
2013-6-23,86,74,67,71,65,62,89,75,55,30.14,30.03,10,1,10,0.00
2013-6-24,84,74,67,71,66,61,88,76,60,30.14,29.98,7,1,7,0.47
2013-6-25,86,75,66,72,67,62,91,78,61,30.05,29.87,11,1,11,0.02
2013-6-26,76,70,64,71,66,60,91,87,74,29.94,29.77,7,0,7,0.83
2013-6-27,79,72,70,71,68,65,92,87,77,29.82,29.71,5,0,5,0.49
2013-6-28,74,69,61,67,62,54,88,80,63,29.72,29.64,4,0,4,0.04
2013-6-29,68,65,62,64,60,56,88,85,78,29.72,29.60,0,0,0,0.02
2013-6-30,68,64,58,63,60,56,92,88,83,29.94,29.74,2,0,2,0.72
2013-7-1,69,65,62,62,59,56,88,83,75,30.03,29.92,4,0,4,0.00
2013-7-2,73,64,58,68,60,55,90,85,78,30.06,30.00,1,0,1,0.06
2013-7-3,75,68,64,67,62,58,93,83,68,30.11,30.02,9,0,9,0.00
2013-7-4,73,69,63,63,60,56,89,74,66,30.18,30.10,1,0,1,0.00
2013-7-5,79,74,68,68,65,61,82,73,67,30.14,30.08,6,0,6,0.00
2013-7-6,74,70,66,68,65,61,90,84,79,30.14,30.04,6,0,6,0.00
2013-7-7,80,72,65,70,66,62,91,81,70,30.11,30.02,6,1,6,0.18
2013-7-8,81,74,68,74,68,64,89,83,77,30.11,30.02,8,0,8,0.00
2013-7-9,81,76,73,74,71,68,87,83,76,30.06,30.03,5,0,5,0.00
2013-7-10,81,72,59,76,67,54,91,85,74,30.04,29.86,8,1,8,0.00
2013-7-11,74,66,57,62,58,54,90,76,61,30.10,30.01,2,0,2,0.18
2013-7-12,63,61,59,55,54,53,80,78,76,30.10,30.08,0,0,0,0.00
2013-7-13,80,72,60,68,62,55,86,73,65,30.18,30.13,7,0,7,0.18
2013-7-14,84,80,76,74,71,66,79,72,68,30.24,30.20,1,0,1,0.00
2013-7-15,86,80,72,74,71,68,86,74,64,30.31,30.24,1,0,1,0.00
2013-7-16,85,78,71,73,70,67,87,78,64,30.35,30.30,1,0,1,0.00
2013-7-17,88,73,32,74,66,28,87,80,62,30.35,30.25,3,0,3,0.00
2013-7-18,89,85,78,76,73,71,79,69,62,30.12,30.05,0,0,0,0.00
2013-7-19,90,82,74,76,72,55,87,72,63,30.06,29.86,9,1,9,0.00
2013-7-20,84,78,73,73,70,66,86,78,67,29.95,29.83,7,0,7,0.08
2013-7-21,83,74,66,70,66,61,87,76,61,30.01,29.91,8,0,8,0.00
2013-7-22,76,71,65,70,66,62,91,85,80,29.92,29.81,2,0,2,0.98
2013-7-23,80,72,66,70,65,57,91,80,68,29.88,29.71,5,0,5,0.00
2013-7-24,71,64,53,57,53,48,83,68,59,30.06,29.99,0,0,0,0.00
2013-7-25,74,64,55,58,54,49,85,71,57,30.14,30.06,0,0,0,0.00
2013-7-26,76,71,62,62,60,55,83,68,60,30.13,29.97,1,0,1,0.00
2013-7-27,72,67,60,64,58,12,85,71,60,29.96,29.86,2,0,2,0.00
2013-7-28,68,60,52,55,50,46,81,69,57,30.03,29.93,10,0,10,0.00
2013-7-29,69,63,56,57,52,50,85,67,62,30.18,30.13,0,0,0,0.00
2013-7-30,71,69,68,62,58,54,76,68,61,30.23,30.14,1,0,1,0.00
2013-7-31,70,65,60,68,62,57,91,89,84,30.09,29.98,6,0,6,0.16
2013-8-1,76,69,63,63,61,57,90,76,62,30.02,29.97,0,0,0,0.17
2013-8-2,78,70,59,69,63,56,88,77,67,30.02,29.90,13,0,13,0.65
2013-8-3,73,67,59,65,60,52,92,79,69,30.11,29.98,1,0,1,0.71
2013-8-4,73,62,54,59,54,49,87,75,61,30.21,30.10,0,0,0,0.00
2013-8-5,72,64,58,63,57,52,85,77,65,30.16,29.98,0,0,0,0.00
2013-8-6,76,69,63,69,63,58,86,83,78,29.99,29.92,4,0,4,0.00
2013-8-7,82,74,68,73,68,65,91,84,75,29.95,29.88,6,0,6,0.00
2013-8-8,74,70,32,70,66,28,88,86,83,30.00,29.93,0,0,0,0.10
2013-8-9,79,72,65,68,64,60,89,77,63,30.07,29.99,0,0,0,0.00
2013-8-10,81,72,64,69,64,60,89,76,61,30.13,30.06,4,0,4,0.00
2013-8-11,80,70,63,66,61,58,86,74,60,30.15,30.08,0,0,0,0.00
2013-8-12,82,71,61,69,63,58,90,77,64,30.12,29.90,6,0,6,0.02
2013-8-13,71,65,57,65,55,46,86,72,55,30.13,29.91,5,0,5,0.00
2013-8-14,57,54,51,47,45,44,76,72,69,30.15,30.13,0,0,0,0.00
2013-8-15,71,66,58,55,53,50,75,63,54,30.16,30.13,0,0,0,0.00
2013-8-16,73,64,58,59,55,50,84,73,58,30.21,30.16,3,0,3,0.00
2013-8-17,76,65,56,61,55,50,84,72,57,30.26,30.18,0,0,0,0.00
2013-8-18,79,67,57,63,57,51,85,70,52,30.23,30.13,3,0,3,0.00
2013-8-19,82,69,58,66,59,53,87,73,56,30.17,30.09,3,0,3,0.00
2013-8-20,84,71,61,68,62,56,89,73,54,30.20,30.10,4,0,4,0.00
2013-8-21,84,72,64,71,64,59,87,76,60,30.19,30.05,4,0,4,0.00
2013-8-22,72,70,68,67,64,62,90,84,80,30.14,30.03,0,0,0,0.25
2013-8-23,80,70,62,66,62,58,90,78,62,30.19,30.10,0,0,0,0.00
2013-8-24,80,69,56,60,56,51,85,65,46,30.32,30.20,5,0,5,0.00
2013-8-25,85,71,58,65,60,52,87,68,50,30.33,30.23,29,0,29,0.00
2013-8-26,85,72,60,72,64,56,88,77,60,30.26,30.09,5,0,5,0.00
2013-8-27,88,78,71,76,70,66,86,77,65,30.10,29.95,0,0,0,0.00
2013-8-28,86,78,74,75,70,67,79,75,68,30.04,29.92,8,0,8,0.00
2013-8-29,85,75,69,71,67,64,86,77,60,30.10,30.03,5,0,5,0.00
2013-8-30,89,75,63,73,66,59,91,75,58,30.04,29.79,2,0,2,0.00
2013-8-31,78,72,67,71,66,62,90,83,73,29.92,29.79,4,0,4,0.49
2013-9-1,75,70,65,70,66,62,92,89,84,29.85,29.80,5,0,5,0.00
2013-9-2,78,70,67,68,64,58,91,80,62,29.96,29.79,5,0,5,0.00
2013-9-3,70,62,54,58,54,50,85,73,64,30.10,30.05,6,0,6,0.00
2013-9-4,79,72,57,62,58,51,80,64,54,30.17,30.08,0,0,0,0.00
2013-9-5,79,68,58,61,56,48,87,66,54,30.24,30.20,0,0,0,0.00
2013-9-6,79,64,51,58,50,44,81,63,45,30.28,30.10,0,0,0,0.00
2013-9-7,85,69,58,66,58,13,83,71,51,30.10,29.96,0,0,0,0.00
2013-9-8,78,74,64,68,64,59,86,73,68,30.04,29.98,0,0,0,0.00
2013-9-9,90,79,64,73,68,59,87,70,55,30.03,29.92,0,0,0,0.00
2013-9-10,92,83,73,73,68,63,88,61,44,30.10,30.05,0,0,0,0.00
2013-9-11,92,90,86,70,65,62,57,45,42,30.09,30.00,0,0,0,0.00
2013-9-12,78,70,64,67,63,59,90,79,58,30.03,29.88,0,0,0,0.41
2013-9-13,65,59,52,48,45,42,76,61,52,30.15,30.08,0,0,0,0.00
2013-9-14,67,61,54,45,43,39,63,51,43,30.22,30.12,0,0,0,0.00
2013-9-15,71,62,52,55,49,44,84,64,49,30.14,30.02,0,0,0,0.02
2013-9-16,63,61,56,54,53,52,86,75,71,30.31,30.21,0,0,0,0.00
2013-9-17,69,63,47,54,50,42,83,65,58,30.37,30.19,0,0,0,0.00
2013-9-18,79,72,57,62,58,49,79,63,51,30.15,30.04,0,0,0,0.00
2013-9-19,71,67,63,68,64,60,93,89,79,30.08,29.92,0,0,0,1.30
2013-9-20,74,70,64,69,66,60,91,87,79,29.95,29.82,0,0,0,0.35
2013-9-21,66,58,50,61,51,43,91,79,60,29.94,29.79,0,0,0,0.00
2013-9-22,65,54,48,50,46,43,88,74,57,30.07,29.94,29,0,29,0.00
2013-9-23,67,54,43,50,44,38,85,70,54,30.16,30.07,0,0,0,0.00
2013-9-24,68,56,46,52,46,40,83,69,53,30.13,29.97,0,0,0,0.00
2013-9-25,72,56,50,53,47,44,80,72,52,29.99,29.93,0,0,0,0.00
2013-9-26,75,60,50,57,50,44,85,70,52,30.11,29.98,0,0,0,0.00
2013-9-27,77,67,51,55,51,46,82,58,43,30.22,30.12,0,0,0,0.00
2013-9-28,80,63,50,56,51,45,85,67,43,30.18,30.03,0,0,0,0.00
2013-9-29,65,61,55,59,55,52,89,82,72,30.04,30.00,0,0,0,0.00
2013-9-30,71,63,58,60,56,53,87,78,67,30.00,29.96,0,0,0,0.00
2013-10-1,71,62,57,62,57,54,91,84,72,30.07,30.00,0,0,0,0.00
2013-10-2,78,68,23,68,62,20,91,81,71,30.12,30.05,0,0,0,0.00
2013-10-3,76,69,64,68,63,60,92,83,70,30.07,29.96,0,0,0,0.00
2013-10-4,83,74,67,68,65,62,88,74,59,30.06,29.99,0,0,0,0.00
2013-10-5,76,68,64,68,64,60,92,86,72,30.04,29.89,0,0,0,0.00
2013-10-6,66,58,47,64,55,41,93,90,78,29.91,29.74,0,0,0,0.43
2013-10-7,59,50,44,49,43,39,87,78,67,30.09,29.82,0,0,0,0.00
2013-10-8,70,59,47,52,47,42,89,65,52,30.27,30.16,0,0,0,0.00
2013-10-9,70,56,45,51,44,40,81,66,50,30.25,30.18,0,0,0,0.00
2013-10-10,72,72,72,52,52,52,50,50,50,30.14,30.14,0,0,0,0.00
2013-10-12,75,73,69,55,53,50,52,50,46,30.09,30.05,0,0,0,0.00
2013-10-13,68,64,61,46,43,41,50,47,44,30.34,30.31,0,0,0,0.00
2013-10-15,64,59,54,60,54,50,89,84,81,30.03,29.91,0,0,0,0.00
2013-10-16,63,53,11,59,43,1,88,70,64,29.97,29.90,0,0,0,0.00
2013-10-17,50,45,41,45,41,37,89,84,78,29.95,29.87,0,0,0,0.08
2013-10-18,62,47,39,47,39,35,90,76,55,30.00,29.92,0,0,0,0.00
2013-10-19,51,43,38,38,36,34,88,77,60,29.98,29.86,0,0,0,0.22
2013-10-20,63,50,41,44,38,34,78,65,50,29.97,29.88,0,0,0,0.00
2013-10-21,55,51,44,42,41,38,79,69,62,29.93,29.91,0,0,0,0.00
2013-10-22,42,39,30,31,28,23,77,64,53,30.04,29.94,0,0,0,0.06
2013-10-23,43,38,35,35,30,28,87,74,61,30.04,29.87,0,0,0,0.17
2013-10-24,40,36,31,32,28,24,82,73,63,30.18,30.03,0,0,0,0.00
2013-10-25,48,38,29,30,27,22,78,64,50,30.42,30.23,0,0,0,0.00
2013-10-26,55,43,38,38,30,22,64,60,29,30.18,29.89,0,0,0,0.00
2013-10-27,54,48,34,34,32,29,84,55,45,30.11,30.04,0,0,0,0.00
2013-10-28,59,55,50,38,35,31,58,48,45,30.26,30.24,0,0,0,0.00
2013-10-30,62,61,60,60,58,56,91,90,88,29.98,29.95,0,0,0,0.10
2013-10-31,63,58,-28,60,56,-29,93,92,90,29.95,29.30,0,0,0,1.28
2013-11-1,53,46,42,51,42,37,92,86,80,29.76,29.39,0,0,0,0.02
2013-11-2,45,43,38,41,39,34,87,86,82,30.12,29.75,0,0,0,0.09
2013-11-3,48,41,34,41,36,30,89,81,71,30.36,30.12,0,0,0,0.00
2013-11-4,52,44,38,42,36,33,81,74,63,30.37,30.26,0,0,0,0.00
2013-11-5,55,49,42,46,42,36,86,78,70,30.37,30.13,0,0,0,0.02
2013-11-6,55,50,41,50,44,38,87,81,68,30.13,29.86,0,0,0,0.18
2013-11-7,44,39,32,38,32,27,87,74,55,30.27,30.11,0,0,0,0.00
2013-11-8,47,37,29,35,29,24,85,74,61,30.36,30.16,0,0,0,0.00
2013-11-9,59,49,40,41,36,31,71,62,50,30.16,29.95,0,0,0,0.00
2013-11-10,48,40,31,36,29,23,74,64,54,30.34,30.07,0,0,0,0.00
2013-11-11,46,39,29,36,30,23,79,72,61,30.38,30.08,3,0,3,0.02
2013-11-12,23,22,22,16,16,16,77,77,77,30.55,30.51,0,0,0,0.00
2013-11-13,37,32,22,22,19,16,79,61,52,30.59,30.30,0,0,0,0.00
2013-11-14,31,31,31,20,20,20,65,65,64,30.30,30.27,0,0,0,0.00
2013-11-15,52,44,37,34,29,25,65,56,49,30.10,30.04,0,0,0,0.00
2013-11-16,58,49,38,54,44,29,86,82,70,30.06,29.78,86,4,86,0.00
2013-11-17,62,55,47,58,50,39,89,82,73,29.79,29.36,88,6,88,0.27
2013-11-18,47,40,34,39,31,26,81,71,62,30.21,29.74,60,4,60,0.00
2013-11-19,40,33,27,30,25,9,80,73,62,30.37,30.21,100,1,100,0.00
2013-11-20,43,34,25,34,26,19,81,73,65,30.36,30.18,8,1,8,0.00
2013-11-21,47,44,38,44,39,17,89,82,42,30.27,30.18,8,1,8,0.41
2013-11-22,48,40,29,45,37,25,89,88,86,30.44,30.17,7,0,7,0.10
2013-11-23,30,26,22,26,22,15,87,83,73,30.57,30.38,5,0,5,0.00
2013-11-24,26,20,16,17,12,9,80,72,67,30.62,30.48,0,0,0,0.00
2013-11-25,31,27,16,22,17,9,77,68,63,30.48,30.15,60,2,60,0.00
2013-11-26,34,30,28,27,23,21,80,77,73,30.17,29.98,0,0,0,0.00
2013-11-27,28,24,19,22,18,13,81,78,73,30.27,30.02,87,2,87,0.00
2013-11-28,34,25,20,21,16,-3,75,68,31,30.44,30.22,8,1,8,0.00
2013-11-29,35,27,16,27,18,10,84,69,60,30.63,30.44,86,1,86,0.00
2013-11-30,48,34,28,31,24,9,79,68,39,30.49,30.13,11,1,11,0.00
2013-12-1,48,36,28,38,28,12,81,73,67,30.13,29.99,7,0,7,0.00
2013-12-2,40,35,32,32,28,25,83,76,70,30.00,29.83,7,0,7,0.02
2013-12-3,48,41,35,44,37,30,88,86,83,29.85,29.77,9,1,9,0.00
2013-12-4,57,49,39,54,46,36,91,90,86,29.85,29.65,11,1,11,0.02
2013-12-5,56,37,26,53,32,20,90,82,76,30.21,29.69,11,3,11,0.00
2013-12-6,26,26,26,20,20,20,78,78,77,30.28,30.20,4,1,4,0.00
2013-12-7,20,15,14,13,10,8,79,78,73,30.59,30.57,2,1,2,0.00
2013-12-8,20,20,19,13,12,12,72,72,72,30.27,30.26,2,1,2,0.00
2013-12-10,21,14,6,11,6,-1,76,70,61,30.31,30.08,8,2,8,0.00
2013-12-11,23,17,8,16,10,0,77,74,69,30.51,30.30,4,0,4,0.00
2013-12-12,7,5,3,0,-2,-4,73,73,72,30.54,30.51,4,0,4,0.00
2013-12-13,32,25,14,22,16,5,76,67,59,30.27,30.13,7,1,7,0.00
2013-12-15,16,16,16,10,10,10,78,78,78,30.10,30.07,4,0,4,0.00
2013-12-16,20,16,14,15,10,8,81,80,77,30.15,30.02,0,0,0,0.00
2013-12-17,26,25,24,22,21,20,84,84,84,30.09,30.02,1,0,1,0.00
2013-12-18,21,20,20,15,14,14,77,77,77,30.24,30.23,0,0,0,0.00
2013-12-19,38,36,34,32,27,24,79,73,67,29.95,29.94,4,2,4,0.00
2013-12-20,55,54,53,52,52,51,93,92,92,29.76,29.75,5,2,5,0.00
2013-12-21,36,35,30,34,32,27,91,91,90,29.77,29.54,6,0,6,0.14
2013-12-22,34,33,29,32,30,16,91,90,48,30.02,29.51,10,1,10,0.00
2013-12-23,26,20,13,23,15,7,86,81,77,30.42,30.26,9,2,9,0.00
2013-12-24,14,9,3,8,3,-2,80,78,75,30.55,30.42,30,2,30,0.00
2013-12-25,27,23,18,22,17,12,83,80,77,30.43,30.13,7,1,7,0.00
2013-12-26,32,27,22,25,22,14,87,80,72,30.33,30.10,7,2,7,0.00
2013-12-27,44,36,32,33,28,25,80,74,66,30.35,30.19,6,2,6,0.00
2013-12-28,47,39,32,35,31,27,84,72,63,30.18,29.95,8,1,8,0.00
2013-12-29,95,34,26,85,27,20,80,77,68,30.09,29.79,7,1,7,0.00
2013-12-30,26,19,0,20,12,-5,80,73,65,30.29,30.08,4,0,4,0.00
2013-12-31,20,16,11,13,9,6,79,75,70,30.37,30.16,8,0,8,0.00
2014-1-1,23,19,16,18,14,12,82,80,79,30.27,30.10,2,0,2,0.00
2014-1-2,16,14,8,12,9,2,83,81,76,30.29,30.00,72,4,72,0.00